Time,TemperatureF,DewpointF,PressureIn,WindDirection,WindDirectionDegrees,WindSpeedMPH,WindSpeedGustMPH,Humidity,HourlyPrecipIn,Conditions,Clouds,dailyrainin,SoftwareType,DateUTC
2013-02-24 00:00:00,38.5,33.5,28.97,NE,41,3.6,4.0,82,0.00,,BKN,0.00,VWS V13.01,2013-02-24 05:00:00,
2013-02-24 00:05:00,38.3,33.3,28.97,NNE,26,3.1,3.6,82,0.00,,BKN,0.00,VWS V13.01,2013-02-24 05:05:00,
2013-02-24 00:10:00,38.3,33.3,28.97,NNE,15,3.1,3.6,82,0.00,,BKN,0.00,VWS V13.01,2013-02-24 05:10:00,
2013-02-24 00:15:00,38.3,33.3,28.97,NNE,15,3.6,3.6,82,0.00,,BKN,0.00,VWS V13.01,2013-02-24 05:15:00,
2013-02-24 00:20:00,38.5,33.2,28.97,NNE,15,2.7,2.7,81,0.00,,BKN,0.00,VWS V13.01,2013-02-24 05:20:00,
2013-02-24 00:25:00,38.5,33.2,28.97,NNE,15,2.7,2.7,81,0.00,,BKN,0.00,VWS V13.01,2013-02-24 05:25:00,
2013-02-24 00:30:00,38.5,33.2,29.00,NNE,15,2.7,2.7,81,0.00,,BKN,0.00,VWS V13.01,2013-02-24 05:30:00,
2013-02-24 00:35:00,38.5,33.2,29.00,NNE,15,0.0,0.0,81,0.00,,BKN,0.00,VWS V13.01,2013-02-24 05:35:00,
2013-02-24 00:40:00,38.5,33.2,29.00,NNE,15,0.0,0.0,81,0.00,,BKN,0.00,VWS V13.01,2013-02-24 05:40:00,
2013-02-24 00:45:00,38.5,32.9,29.00,NNE,15,0.0,0.0,80,0.00,,BKN,0.00,VWS V13.01,2013-02-24 05:45:00,
2013-02-24 00:50:00,38.5,32.9,29.00,NNE,15,0.0,0.0,80,0.00,,BKN,0.00,VWS V13.01,2013-02-24 05:50:00,
2013-02-24 00:55:00,38.7,33.0,29.00,NNE,15,0.0,0.0,80,0.00,,BKN,0.00,VWS V13.01,2013-02-24 05:55:00,
2013-02-24 01:00:00,38.7,33.0,29.00,NNE,15,0.0,0.0,80,0.00,,BKN,0.00,VWS V13.01,2013-02-24 06:00:00,
2013-02-24 01:04:00,38.7,33.0,29.00,NNE,15,0.0,0.0,80,0.00,,BKN,0.00,VWS V13.01,2013-02-24 06:04:00,
2013-02-24 01:09:00,38.7,33.0,29.00,NNE,15,0.0,0.0,80,0.00,,BKN,0.00,VWS V13.01,2013-02-24 06:09:00,
2013-02-24 01:14:00,38.7,33.0,29.00,NNE,15,0.0,0.0,80,0.00,,BKN,0.00,VWS V13.01,2013-02-24 06:14:00,
2013-02-24 01:19:00,38.7,33.0,29.00,NNE,15,0.0,0.0,80,0.00,,BKN,0.00,VWS V13.01,2013-02-24 06:19:00,
2013-02-24 01:24:00,38.7,33.0,29.00,NNE,15,0.0,0.0,80,0.00,,BKN,0.00,VWS V13.01,2013-02-24 06:24:00,
2013-02-24 01:29:00,38.7,33.0,29.00,NNE,15,0.0,0.0,80,0.00,,BKN,0.00,VWS V13.01,2013-02-24 06:29:00,
2013-02-24 01:34:00,38.5,33.2,29.00,NNE,15,0.0,0.0,81,0.00,,BKN,0.00,VWS V13.01,2013-02-24 06:34:00,
2013-02-24 01:39:00,38.5,33.2,29.00,NNE,15,0.0,0.0,81,0.00,,BKN,0.00,VWS V13.01,2013-02-24 06:39:00,
2013-02-24 01:44:00,38.5,33.2,29.00,NNE,15,0.0,0.0,81,0.00,,BKN,0.00,VWS V13.01,2013-02-24 06:44:00,
2013-02-24 01:49:00,38.5,33.2,29.00,NNE,15,0.0,0.0,81,0.00,,BKN,0.00,VWS V13.01,2013-02-24 06:49:00,
2013-02-24 01:54:00,38.3,33.0,29.00,NNE,15,0.0,0.0,81,0.00,,BKN,0.00,VWS V13.01,2013-02-24 06:54:00,
2013-02-24 01:59:00,38.3,33.0,29.00,NNE,15,0.0,0.0,81,0.00,,BKN,0.00,VWS V13.01,2013-02-24 06:59:00,
2013-02-24 02:04:00,38.1,32.8,29.00,NNE,15,0.0,0.0,81,0.00,,BKN,0.00,VWS V13.01,2013-02-24 07:04:00,
2013-02-24 02:09:00,37.9,32.6,29.00,NNE,15,0.0,0.0,81,0.00,,BKN,0.00,VWS V13.01,2013-02-24 07:09:00,
2013-02-24 02:14:00,37.8,32.5,29.00,NNE,15,0.0,0.0,81,0.00,,BKN,0.00,VWS V13.01,2013-02-24 07:14:00,
2013-02-24 02:19:00,37.6,32.6,29.00,NNE,15,0.0,0.0,82,0.00,,BKN,0.00,VWS V13.01,2013-02-24 07:19:00,
2013-02-24 02:24:00,37.6,32.6,29.00,NNE,15,0.0,0.0,82,0.00,,BKN,0.00,VWS V13.01,2013-02-24 07:24:00,
2013-02-24 02:29:00,37.4,32.4,29.00,NNE,15,0.0,0.0,82,0.00,,BKN,0.00,VWS V13.01,2013-02-24 07:29:00,
2013-02-24 02:34:00,37.4,32.4,29.00,NNE,15,0.0,0.0,82,0.00,,BKN,0.00,VWS V13.01,2013-02-24 07:34:00,
2013-02-24 02:39:00,37.4,32.4,29.00,NNE,15,0.0,0.0,82,0.00,,BKN,0.00,VWS V13.01,2013-02-24 07:39:00,
2013-02-24 02:44:00,37.4,32.4,29.00,NNE,15,0.0,0.0,82,0.00,,BKN,0.00,VWS V13.01,2013-02-24 07:44:00,
2013-02-24 02:49:00,37.2,32.2,28.97,NNE,15,0.0,0.0,82,0.00,,BKN,0.00,VWS V13.01,2013-02-24 07:49:00,
2013-02-24 02:54:00,37.2,32.2,28.97,NNE,15,0.0,0.0,82,0.00,,BKN,0.00,VWS V13.01,2013-02-24 07:54:00,
2013-02-24 02:59:00,37.2,32.2,28.97,NNE,15,0.0,0.0,82,0.00,,BKN,0.00,VWS V13.01,2013-02-24 07:59:00,
2013-02-24 03:04:00,37.2,32.2,28.97,NNE,15,0.0,0.0,82,0.00,,BKN,0.00,VWS V13.01,2013-02-24 08:04:00,
2013-02-24 03:09:00,37.0,32.1,28.97,NNE,15,0.0,0.0,82,0.00,,BKN,0.00,VWS V13.01,2013-02-24 08:09:00,
2013-02-24 03:14:00,37.0,32.1,28.97,NNE,15,0.0,0.0,82,0.00,,BKN,0.00,VWS V13.01,2013-02-24 08:14:00,
2013-02-24 03:19:00,37.0,32.1,28.94,NNE,15,0.0,0.0,82,0.00,,BKN,0.00,VWS V13.01,2013-02-24 08:19:00,
2013-02-24 03:24:00,37.0,32.1,28.94,NNE,15,0.0,0.0,82,0.00,,BKN,0.00,VWS V13.01,2013-02-24 08:24:00,
2013-02-24 03:29:00,37.0,32.1,28.94,NNE,15,0.0,0.0,82,0.00,,BKN,0.00,VWS V13.01,2013-02-24 08:29:00,
2013-02-24 03:34:00,36.9,32.2,28.94,NNE,15,0.0,0.0,83,0.00,,BKN,0.00,VWS V13.01,2013-02-24 08:34:00,
2013-02-24 03:39:00,36.9,32.2,28.94,NNE,15,0.0,0.0,83,0.00,,BKN,0.00,VWS V13.01,2013-02-24 08:39:00,
2013-02-24 03:44:00,36.9,32.2,28.94,NNE,15,0.0,0.0,83,0.00,,BKN,0.00,VWS V13.01,2013-02-24 08:44:00,
2013-02-24 03:49:00,36.9,32.2,28.94,NNE,15,0.0,0.0,83,0.00,,BKN,0.00,VWS V13.01,2013-02-24 08:49:00,
2013-02-24 03:54:00,36.9,32.2,28.94,NNE,15,0.0,0.0,83,0.00,,BKN,0.00,VWS V13.01,2013-02-24 08:54:00,
2013-02-24 03:59:00,37.0,32.4,28.94,NNE,15,0.0,0.0,83,0.00,,BKN,0.00,VWS V13.01,2013-02-24 08:59:00,
2013-02-24 04:04:00,37.0,32.4,28.97,NNE,15,0.0,0.0,83,0.00,,BKN,0.00,VWS V13.01,2013-02-24 09:04:00,
2013-02-24 04:09:00,37.0,32.4,28.97,NNE,15,0.0,0.0,83,0.00,,BKN,0.00,VWS V13.01,2013-02-24 09:09:00,
2013-02-24 04:14:00,37.0,32.4,28.97,NNE,15,0.0,0.0,83,0.00,,BKN,0.00,VWS V13.01,2013-02-24 09:14:00,
2013-02-24 04:19:00,37.0,32.7,28.97,NNE,15,0.0,0.0,84,0.00,,BKN,0.00,VWS V13.01,2013-02-24 09:19:00,
2013-02-24 04:24:00,37.0,32.7,28.97,NNE,15,0.0,0.0,84,0.00,,BKN,0.00,VWS V13.01,2013-02-24 09:24:00,
2013-02-24 04:29:00,37.0,32.7,28.97,NNE,15,0.0,0.0,84,0.00,,BKN,0.00,VWS V13.01,2013-02-24 09:29:00,
2013-02-24 04:34:00,37.0,33.0,28.97,NNE,15,0.0,0.0,85,0.00,,BKN,0.00,VWS V13.01,2013-02-24 09:34:00,
2013-02-24 04:39:00,37.0,33.0,28.97,NNE,15,0.0,0.0,85,0.00,,BKN,0.00,VWS V13.01,2013-02-24 09:39:00,
2013-02-24 04:44:00,37.0,33.0,28.97,NNE,15,0.0,0.0,85,0.00,,BKN,0.00,VWS V13.01,2013-02-24 09:44:00,
2013-02-24 04:49:00,37.0,33.0,28.97,NNE,15,0.0,0.0,85,0.00,,BKN,0.00,VWS V13.01,2013-02-24 09:49:00,
2013-02-24 04:54:00,37.2,33.4,28.97,NNE,15,0.0,0.0,86,0.00,,BKN,0.00,VWS V13.01,2013-02-24 09:54:00,
2013-02-24 04:59:00,37.2,33.4,28.97,NNE,15,0.0,0.0,86,0.00,,BKN,0.00,VWS V13.01,2013-02-24 09:59:00,
2013-02-24 05:04:00,37.0,33.2,28.97,NNE,15,0.0,0.0,86,0.00,,BKN,0.00,VWS V13.01,2013-02-24 10:04:00,
2013-02-24 05:09:00,37.0,33.2,28.97,NNE,15,0.0,0.0,86,0.00,,BKN,0.00,VWS V13.01,2013-02-24 10:09:00,
2013-02-24 05:14:00,37.0,33.2,28.97,NNE,15,0.0,0.0,86,0.00,,BKN,0.00,VWS V13.01,2013-02-24 10:14:00,
2013-02-24 05:19:00,37.2,33.4,28.97,NNE,15,0.0,0.0,86,0.00,,BKN,0.00,VWS V13.01,2013-02-24 10:19:00,
2013-02-24 05:24:00,37.4,33.9,28.97,NNE,15,0.0,0.0,87,0.00,,BKN,0.00,VWS V13.01,2013-02-24 10:24:00,
2013-02-24 05:29:00,37.4,33.9,28.97,NNE,15,0.0,0.0,87,0.00,,BKN,0.00,VWS V13.01,2013-02-24 10:29:00,
2013-02-24 05:34:00,37.4,33.9,28.97,NNE,15,0.0,0.0,87,0.00,,BKN,0.00,VWS V13.01,2013-02-24 10:34:00,
2013-02-24 05:39:00,37.6,34.1,28.97,NNE,15,0.0,0.0,87,0.00,,BKN,0.00,VWS V13.01,2013-02-24 10:39:00,
2013-02-24 05:44:00,37.6,34.1,28.97,NNE,15,0.0,0.0,87,0.00,,BKN,0.00,VWS V13.01,2013-02-24 10:44:00,
2013-02-24 05:49:00,37.4,33.9,28.97,NNE,15,0.0,0.0,87,0.00,,BKN,0.00,VWS V13.01,2013-02-24 10:49:00,
2013-02-24 05:54:00,37.4,33.9,28.97,NNE,15,0.0,0.0,87,0.00,,BKN,0.00,VWS V13.01,2013-02-24 10:54:00,
2013-02-24 05:59:00,37.4,33.9,28.97,NNE,15,0.0,0.0,87,0.00,,BKN,0.00,VWS V13.01,2013-02-24 10:59:00,
2013-02-24 06:04:00,37.2,33.7,28.97,NNE,15,0.0,0.0,87,0.00,,BKN,0.00,VWS V13.01,2013-02-24 11:04:00,
2013-02-24 06:09:00,37.0,33.5,28.97,NNE,15,0.0,0.0,87,0.00,,BKN,0.00,VWS V13.01,2013-02-24 11:09:00,
2013-02-24 06:14:00,36.7,33.2,28.97,NNE,15,0.0,0.0,87,0.00,,BKN,0.00,VWS V13.01,2013-02-24 11:14:00,
2013-02-24 06:19:00,36.7,33.2,28.97,NNE,15,0.0,0.0,87,0.00,,BKN,0.00,VWS V13.01,2013-02-24 11:19:00,
2013-02-24 06:24:00,36.5,32.7,28.97,NNE,15,0.0,0.0,86,0.00,,BKN,0.00,VWS V13.01,2013-02-24 11:24:00,
2013-02-24 06:29:00,36.5,33.0,28.97,NNE,15,0.0,0.0,87,0.00,,BKN,0.00,VWS V13.01,2013-02-24 11:29:00,
2013-02-24 06:34:00,36.7,33.2,28.97,NNE,15,0.0,0.0,87,0.00,,BKN,0.00,VWS V13.01,2013-02-24 11:34:00,
2013-02-24 06:39:00,36.7,33.2,28.97,NNE,15,0.0,0.0,87,0.00,,BKN,0.00,VWS V13.01,2013-02-24 11:39:00,
2013-02-24 06:44:00,36.9,33.4,28.97,NNE,15,0.0,0.0,87,0.00,,BKN,0.00,VWS V13.01,2013-02-24 11:44:00,
2013-02-24 06:49:00,36.9,33.4,28.97,NNE,15,0.0,0.0,87,0.00,,BKN,0.00,VWS V13.01,2013-02-24 11:49:00,
2013-02-24 06:54:00,36.9,33.4,28.97,NNE,15,0.0,0.0,87,0.00,,BKN,0.00,VWS V13.01,2013-02-24 11:54:00,
2013-02-24 06:59:00,36.5,33.0,28.97,NNE,15,0.0,0.0,87,0.00,,BKN,0.00,VWS V13.01,2013-02-24 11:59:00,
2013-02-24 07:04:00,36.7,33.2,28.97,NNE,15,0.0,0.0,87,0.00,,BKN,0.00,VWS V13.01,2013-02-24 12:04:00,
2013-02-24 07:09:00,36.3,32.8,28.97,NNE,15,0.0,0.0,87,0.00,,BKN,0.00,VWS V13.01,2013-02-24 12:09:00,
2013-02-24 07:14:00,36.0,32.5,28.97,NNE,15,0.0,0.0,87,0.00,,BKN,0.00,VWS V13.01,2013-02-24 12:14:00,
2013-02-24 07:19:00,36.1,32.7,28.97,NNE,15,0.0,0.0,87,0.00,,BKN,0.00,VWS V13.01,2013-02-24 12:19:00,
2013-02-24 07:24:00,36.1,32.9,28.97,NNE,15,0.0,0.0,88,0.00,,BKN,0.00,VWS V13.01,2013-02-24 12:24:00,
2013-02-24 07:29:00,36.5,33.3,28.97,NNE,15,0.0,0.0,88,0.00,,BKN,0.00,VWS V13.01,2013-02-24 12:29:00,
2013-02-24 07:34:00,36.5,33.3,28.97,NNE,15,0.0,0.0,88,0.00,,BKN,0.00,VWS V13.01,2013-02-24 12:34:00,
2013-02-24 07:39:00,36.7,33.5,28.97,NNE,15,0.0,0.0,88,0.00,,BKN,0.00,VWS V13.01,2013-02-24 12:39:00,
2013-02-24 07:44:00,36.9,33.7,28.97,NNE,15,0.0,0.0,88,0.00,,BKN,0.00,VWS V13.01,2013-02-24 12:44:00,
2013-02-24 07:49:00,37.2,34.3,28.97,NNE,15,0.0,0.0,89,0.00,,BKN,0.00,VWS V13.01,2013-02-24 12:49:00,
2013-02-24 07:54:00,37.4,34.5,29.00,NNE,15,0.0,0.0,89,0.00,,BKN,0.00,VWS V13.01,2013-02-24 12:54:00,
2013-02-24 07:59:00,37.8,34.8,29.00,NNE,15,0.0,0.0,89,0.00,,BKN,0.00,VWS V13.01,2013-02-24 12:59:00,
2013-02-24 08:04:00,37.8,34.8,29.00,NNE,15,0.0,0.0,89,0.00,,BKN,0.00,VWS V13.01,2013-02-24 13:04:00,
2013-02-24 08:09:00,38.1,35.5,29.00,NNE,15,0.0,0.0,90,0.00,,BKN,0.00,VWS V13.01,2013-02-24 13:09:00,
2013-02-24 08:14:00,38.7,36.0,29.00,West,277,14.3,14.3,90,0.00,,BKN,0.00,VWS V13.01,2013-02-24 13:14:00,
2013-02-24 08:19:00,39.9,33.3,29.00,NW,319,5.4,9.2,77,0.00,,BKN,0.00,VWS V13.01,2013-02-24 13:19:00,
2013-02-24 08:24:00,40.8,24.6,29.00,West,268,8.3,11.0,52,0.00,,BKN,0.00,VWS V13.01,2013-02-24 13:24:00,
2013-02-24 08:29:00,41.2,23.5,29.00,West,272,8.7,10.5,49,0.00,,BKN,0.00,VWS V13.01,2013-02-24 13:29:00,
2013-02-24 08:34:00,41.4,22.7,29.00,West,272,7.8,11.2,47,0.00,,BKN,0.00,VWS V13.01,2013-02-24 13:34:00,
2013-02-24 08:39:00,41.5,21.8,29.00,NW,313,7.8,7.8,45,0.00,,BKN,0.00,VWS V13.01,2013-02-24 13:39:00,
2013-02-24 08:44:00,41.5,21.8,29.00,NW,308,7.4,10.1,45,0.00,,BKN,0.00,VWS V13.01,2013-02-24 13:44:00,
2013-02-24 08:49:00,41.7,21.4,29.03,West,272,12.5,12.5,44,0.00,,BKN,0.00,VWS V13.01,2013-02-24 13:49:00,
2013-02-24 08:54:00,41.9,21.0,29.03,WNW,293,11.2,12.1,43,0.00,,BKN,0.00,VWS V13.01,2013-02-24 13:54:00,
2013-02-24 08:59:00,41.9,21.0,29.03,WSW,256,6.7,9.6,43,0.00,,BKN,0.00,VWS V13.01,2013-02-24 13:59:00,
2013-02-24 09:04:00,41.9,20.5,29.03,WNW,288,10.1,11.2,42,0.00,,BKN,0.00,VWS V13.01,2013-02-24 14:04:00,
2013-02-24 09:09:00,41.9,19.9,29.03,NW,315,5.4,8.7,41,0.00,,BKN,0.00,VWS V13.01,2013-02-24 14:09:00,
2013-02-24 09:14:00,42.1,20.1,29.03,West,274,6.3,13.0,41,0.00,,BKN,0.00,VWS V13.01,2013-02-24 14:14:00,
2013-02-24 09:19:00,42.3,20.3,29.03,WNW,297,10.1,11.2,41,0.00,,BKN,0.00,VWS V13.01,2013-02-24 14:19:00,
2013-02-24 09:24:00,42.4,20.4,29.03,WSW,253,7.8,10.5,41,0.00,,BKN,0.00,VWS V13.01,2013-02-24 14:24:00,
2013-02-24 09:29:00,42.8,20.8,29.03,WNW,297,6.9,14.3,41,0.00,,BKN,0.00,VWS V13.01,2013-02-24 14:29:00,
2013-02-24 09:34:00,43.0,20.3,29.03,WSW,255,9.2,16.3,40,0.00,,BKN,0.00,VWS V13.01,2013-02-24 14:34:00,
2013-02-24 09:39:00,43.5,20.8,29.03,West,263,8.3,15.2,40,0.00,,BKN,0.00,VWS V13.01,2013-02-24 14:39:00,
2013-02-24 09:44:00,43.9,20.5,29.03,WSW,252,7.4,11.0,39,0.00,,BKN,0.00,VWS V13.01,2013-02-24 14:44:00,
2013-02-24 09:49:00,43.9,20.5,29.03,WNW,294,8.3,9.6,39,0.00,,BKN,0.00,VWS V13.01,2013-02-24 14:49:00,
2013-02-24 09:54:00,44.2,20.3,29.03,NW,306,10.5,12.5,38,0.00,,BKN,0.00,VWS V13.01,2013-02-24 14:54:00,
2013-02-24 09:59:00,44.2,20.9,29.03,WNW,301,7.8,7.8,39,0.00,,BKN,0.00,VWS V13.01,2013-02-24 14:59:00,
2013-02-24 10:04:00,44.8,20.7,29.03,West,276,6.3,8.7,38,0.00,,BKN,0.00,VWS V13.01,2013-02-24 15:04:00,
2013-02-24 10:09:00,44.8,20.7,29.03,West,272,8.7,11.0,38,0.00,,BKN,0.00,VWS V13.01,2013-02-24 15:09:00,
2013-02-24 10:14:00,44.6,20.6,29.03,West,271,13.4,13.4,38,0.00,,BKN,0.00,VWS V13.01,2013-02-24 15:14:00,
2013-02-24 10:19:00,44.6,20.6,29.03,NW,310,7.4,9.2,38,0.00,,BKN,0.00,VWS V13.01,2013-02-24 15:19:00,
2013-02-24 10:24:00,44.4,20.4,29.03,NW,320,10.1,13.0,38,0.00,,BKN,0.00,VWS V13.01,2013-02-24 15:24:00,
2013-02-24 10:29:00,44.6,20.6,29.03,WNW,292,8.3,9.6,38,0.00,,BKN,0.00,VWS V13.01,2013-02-24 15:29:00,
2013-02-24 10:34:00,45.0,20.9,29.03,NNW,337,8.3,9.6,38,0.00,,BKN,0.00,VWS V13.01,2013-02-24 15:34:00,
2013-02-24 10:39:00,45.3,21.2,29.03,West,263,7.4,16.8,38,0.00,,BKN,0.00,VWS V13.01,2013-02-24 15:39:00,
2013-02-24 10:44:00,44.8,20.7,29.03,NNW,328,13.9,15.4,38,0.00,,BKN,0.00,VWS V13.01,2013-02-24 15:44:00,
2013-02-24 10:49:00,45.0,20.9,29.03,WNW,298,6.7,6.7,38,0.00,,BKN,0.00,VWS V13.01,2013-02-24 15:49:00,
2013-02-24 10:54:00,45.7,20.9,29.03,NW,319,6.7,14.3,37,0.00,,BKN,0.00,VWS V13.01,2013-02-24 15:54:00,
2013-02-24 10:59:00,45.7,20.9,29.03,WNW,292,6.3,7.4,37,0.00,,BKN,0.00,VWS V13.01,2013-02-24 15:59:00,
2013-02-24 11:04:00,45.9,21.1,29.03,NNW,338,8.3,8.7,37,0.00,,BKN,0.00,VWS V13.01,2013-02-24 16:04:00,
2013-02-24 11:09:00,45.9,21.1,29.03,WNW,298,9.2,17.2,37,0.00,,BKN,0.00,VWS V13.01,2013-02-24 16:09:00,
2013-02-24 11:14:00,45.5,20.8,29.03,WNW,286,11.0,12.5,37,0.00,,BKN,0.00,VWS V13.01,2013-02-24 16:14:00,
2013-02-24 11:19:00,45.9,21.1,29.03,WNW,284,5.8,11.2,37,0.00,,BKN,0.00,VWS V13.01,2013-02-24 16:19:00,
2013-02-24 11:24:00,46.0,21.2,29.03,WNW,283,7.4,7.8,37,0.00,,BKN,0.00,VWS V13.01,2013-02-24 16:24:00,
2013-02-24 11:29:00,46.4,20.9,29.03,West,268,7.4,14.8,36,0.00,,BKN,0.00,VWS V13.01,2013-02-24 16:29:00,
2013-02-24 11:34:00,46.9,20.7,29.03,WSW,252,9.6,12.1,35,0.00,,BKN,0.00,VWS V13.01,2013-02-24 16:34:00,
2013-02-24 11:39:00,47.3,21.7,29.03,WNW,291,8.7,11.6,36,0.00,,BKN,0.00,VWS V13.01,2013-02-24 16:39:00,
2013-02-24 11:44:00,47.1,20.2,29.03,West,280,10.1,13.0,34,0.00,,BKN,0.00,VWS V13.01,2013-02-24 16:44:00,
2013-02-24 11:49:00,47.3,21.0,29.03,West,277,6.9,7.4,35,0.00,,BKN,0.00,VWS V13.01,2013-02-24 16:49:00,
2013-02-24 11:54:00,47.7,20.0,29.03,WNW,296,5.8,10.5,33,0.00,,BKN,0.00,VWS V13.01,2013-02-24 16:54:00,
2013-02-24 11:59:00,48.0,20.3,29.03,WNW,302,5.4,6.9,33,0.00,,BKN,0.00,VWS V13.01,2013-02-24 16:59:00,
2013-02-24 12:04:00,48.2,20.5,29.03,WNW,286,5.4,9.6,33,0.00,,BKN,0.00,VWS V13.01,2013-02-24 17:04:00,
2013-02-24 12:09:00,48.0,20.3,29.03,West,274,7.4,13.9,33,0.00,,BKN,0.00,VWS V13.01,2013-02-24 17:09:00,
2013-02-24 12:14:00,47.8,19.4,29.03,West,275,5.8,9.6,32,0.00,,BKN,0.00,VWS V13.01,2013-02-24 17:14:00,
2013-02-24 12:19:00,48.0,19.6,29.03,WNW,285,12.5,14.3,32,0.00,,BKN,0.00,VWS V13.01,2013-02-24 17:19:00,
2013-02-24 12:24:00,47.8,19.4,29.03,WSW,240,8.7,9.2,32,0.00,,BKN,0.00,VWS V13.01,2013-02-24 17:24:00,
2013-02-24 12:29:00,47.8,19.4,29.03,West,268,6.9,7.4,32,0.00,,BKN,0.00,VWS V13.01,2013-02-24 17:29:00,
2013-02-24 12:34:00,47.7,19.3,29.03,SW,231,7.8,11.2,32,0.00,,BKN,0.00,VWS V13.01,2013-02-24 17:34:00,
2013-02-24 12:39:00,48.0,18.8,29.03,WNW,293,5.8,6.7,31,0.00,,BKN,0.00,VWS V13.01,2013-02-24 17:39:00,
2013-02-24 12:44:00,48.2,19.0,29.03,WSW,246,10.1,10.1,31,0.00,,BKN,0.00,VWS V13.01,2013-02-24 17:44:00,
2013-02-24 12:49:00,47.8,18.7,29.03,WSW,243,10.5,10.5,31,0.00,,BKN,0.00,VWS V13.01,2013-02-24 17:49:00,
2013-02-24 12:54:00,48.6,19.3,29.03,WNW,287,12.1,12.5,31,0.00,,BKN,0.00,VWS V13.01,2013-02-24 17:54:00,
2013-02-24 12:59:00,48.0,18.8,29.03,WSW,247,8.7,9.6,31,0.00,,BKN,0.00,VWS V13.01,2013-02-24 17:59:00,
2013-02-24 13:04:00,48.2,19.0,29.03,West,276,5.4,7.8,31,0.00,,BKN,0.00,VWS V13.01,2013-02-24 18:04:00,
2013-02-24 13:09:00,47.8,17.9,29.03,WSW,240,6.7,14.8,30,0.00,,BKN,0.00,VWS V13.01,2013-02-24 18:09:00,
2013-02-24 13:49:00,48.0,18.1,29.03,SW,221,8.3,8.3,30,0.00,,BKN,0.00,VWS V13.01,2013-02-24 18:49:00,
2013-02-24 13:54:00,47.8,17.9,29.03,WSW,251,5.8,9.2,30,0.00,,BKN,0.00,VWS V13.01,2013-02-24 18:54:00,
2013-02-24 13:59:00,47.8,17.9,29.03,SSW,208,11.6,14.3,30,0.00,,BKN,0.00,VWS V13.01,2013-02-24 18:59:00,
2013-02-24 14:04:00,48.2,18.2,29.03,SW,216,10.1,10.1,30,0.00,,BKN,0.00,VWS V13.01,2013-02-24 19:04:00,
2013-02-24 14:09:00,48.6,18.5,29.03,West,269,6.7,6.9,30,0.00,,BKN,0.00,VWS V13.01,2013-02-24 19:09:00,
2013-02-24 14:14:00,48.6,18.5,29.03,WSW,250,11.0,11.0,30,0.00,,BKN,0.00,VWS V13.01,2013-02-24 19:14:00,
2013-02-24 14:19:00,48.4,18.4,29.03,WNW,292,4.5,7.8,30,0.00,,BKN,0.00,VWS V13.01,2013-02-24 19:19:00,
2013-02-24 14:24:00,48.6,18.5,29.03,West,268,12.5,12.5,30,0.00,,BKN,0.00,VWS V13.01,2013-02-24 19:24:00,
2013-02-24 14:29:00,48.7,18.7,29.03,West,273,7.8,9.2,30,0.00,,BKN,0.00,VWS V13.01,2013-02-24 19:29:00,
2013-02-24 14:34:00,48.4,18.4,29.03,West,264,7.8,9.6,30,0.00,,BKN,0.00,VWS V13.01,2013-02-24 19:34:00,
2013-02-24 14:39:00,48.4,18.4,29.03,WNW,296,9.2,9.2,30,0.00,,BKN,0.00,VWS V13.01,2013-02-24 19:39:00,
2013-02-24 14:44:00,48.6,18.5,29.03,SSW,213,7.8,7.8,30,0.00,,BKN,0.00,VWS V13.01,2013-02-24 19:44:00,
2013-02-24 14:49:00,48.7,18.7,29.03,WNW,303,6.3,6.7,30,0.00,,BKN,0.00,VWS V13.01,2013-02-24 19:49:00,
2013-02-24 14:54:00,48.6,17.8,29.03,WNW,293,7.8,10.5,29,0.00,,BKN,0.00,VWS V13.01,2013-02-24 19:54:00,
2013-02-24 14:59:00,47.8,17.1,29.03,WSW,255,9.6,10.5,29,0.00,,BKN,0.00,VWS V13.01,2013-02-24 19:59:00,
2013-02-24 15:04:00,47.7,17.0,29.03,West,275,6.9,9.6,29,0.00,,BKN,0.00,VWS V13.01,2013-02-24 20:04:00,
2013-02-24 15:09:00,47.8,17.1,29.03,West,281,9.6,11.2,29,0.00,,BKN,0.00,VWS V13.01,2013-02-24 20:09:00,
2013-02-24 15:14:00,48.0,17.3,29.03,WSW,256,8.7,8.7,29,0.00,,BKN,0.00,VWS V13.01,2013-02-24 20:14:00,
2013-02-24 15:19:00,47.8,17.1,29.03,NW,304,8.3,8.7,29,0.00,,BKN,0.00,VWS V13.01,2013-02-24 20:19:00,
2013-02-24 15:24:00,48.0,17.3,29.03,WNW,284,6.3,6.3,29,0.00,,BKN,0.00,VWS V13.01,2013-02-24 20:24:00,
2013-02-24 15:29:00,47.7,17.0,29.03,WNW,293,7.8,7.8,29,0.00,,BKN,0.00,VWS V13.01,2013-02-24 20:29:00,
2013-02-24 15:34:00,47.7,17.0,29.03,West,268,7.4,7.4,29,0.00,,BKN,0.00,VWS V13.01,2013-02-24 20:34:00,
2013-02-24 15:39:00,47.1,16.5,29.03,WNW,300,8.3,8.3,29,0.00,,BKN,0.00,VWS V13.01,2013-02-24 20:39:00,
2013-02-24 15:44:00,46.8,17.0,29.03,NW,314,14.8,18.1,30,0.00,,BKN,0.00,VWS V13.01,2013-02-24 20:44:00,
2013-02-24 15:49:00,46.2,16.5,29.06,NW,315,9.2,10.1,30,0.00,,BKN,0.00,VWS V13.01,2013-02-24 20:49:00,
2013-02-24 15:54:00,45.3,16.5,29.06,NW,305,8.3,10.1,31,0.00,,BKN,0.00,VWS V13.01,2013-02-24 20:54:00,
2013-02-24 15:59:00,45.0,16.2,29.06,NW,309,9.2,11.2,31,0.00,,BKN,0.00,VWS V13.01,2013-02-24 20:59:00,
2013-02-24 16:04:00,44.6,16.6,29.06,WNW,290,9.2,9.2,32,0.00,,BKN,0.00,VWS V13.01,2013-02-24 21:04:00,
2013-02-24 16:09:00,44.2,16.3,29.06,North,351,6.9,15.9,32,0.00,,BKN,0.00,VWS V13.01,2013-02-24 21:09:00,
2013-02-24 16:14:00,43.9,15.9,29.06,WNW,291,14.3,14.3,32,0.00,,BKN,0.00,VWS V13.01,2013-02-24 21:14:00,
2013-02-24 16:18:00,43.2,16.0,29.06,NNW,343,7.8,11.0,33,0.00,,BKN,0.00,VWS V13.01,2013-02-24 21:18:00,
2013-02-24 16:23:00,42.4,16.1,29.06,NNW,327,7.4,16.3,34,0.00,,BKN,0.00,VWS V13.01,2013-02-24 21:23:00,
2013-02-24 16:28:00,41.9,16.3,29.06,WNW,287,11.2,13.0,35,0.00,,BKN,0.00,VWS V13.01,2013-02-24 21:28:00,
2013-02-24 16:33:00,41.2,15.6,29.09,NW,310,6.7,7.4,35,0.00,,BKN,0.00,VWS V13.01,2013-02-24 21:33:00,
2013-02-24 16:38:00,40.5,15.6,29.09,NW,318,10.5,12.5,36,0.00,,BKN,0.00,VWS V13.01,2013-02-24 21:38:00,
2013-02-24 16:43:00,39.9,15.8,29.09,NNW,338,7.4,8.7,37,0.00,,BKN,0.00,VWS V13.01,2013-02-24 21:43:00,
2013-02-24 16:48:00,39.9,16.4,29.09,NW,315,8.7,13.0,38,0.00,,BKN,0.00,VWS V13.01,2013-02-24 21:48:00,
2013-02-24 16:53:00,39.7,16.2,29.09,NW,304,5.4,9.6,38,0.00,,BKN,0.00,VWS V13.01,2013-02-24 21:53:00,
2013-02-24 16:58:00,39.2,15.7,29.09,NNW,332,5.4,6.9,38,0.00,,BKN,0.00,VWS V13.01,2013-02-24 21:58:00,
2013-02-24 17:03:00,38.8,16.0,29.12,North,351,10.1,13.0,39,0.00,,BKN,0.00,VWS V13.01,2013-02-24 22:03:00,
2013-02-24 17:08:00,38.5,15.7,29.12,North,8,8.3,13.4,39,0.00,,BKN,0.00,VWS V13.01,2013-02-24 22:08:00,
2013-02-24 17:13:00,37.9,15.2,29.12,WNW,286,5.4,9.2,39,0.00,,BKN,0.00,VWS V13.01,2013-02-24 22:13:00,
2013-02-24 17:18:00,37.6,15.5,29.12,NNW,345,6.7,11.0,40,0.00,,BKN,0.00,VWS V13.01,2013-02-24 22:18:00,
2013-02-24 17:23:00,37.0,15.0,29.12,NNW,333,9.6,14.8,40,0.00,,BKN,0.00,VWS V13.01,2013-02-24 22:23:00,
2013-02-24 17:28:00,36.9,14.8,29.12,NW,311,8.7,10.1,40,0.00,,BKN,0.00,VWS V13.01,2013-02-24 22:28:00,
2013-02-24 17:33:00,36.7,14.6,29.15,NW,326,15.4,15.4,40,0.00,,BKN,0.00,VWS V13.01,2013-02-24 22:33:00,
2013-02-24 17:38:00,36.3,14.3,29.15,NW,315,8.7,13.4,40,0.00,,BKN,0.00,VWS V13.01,2013-02-24 22:38:00,
2013-02-24 17:43:00,36.1,14.7,29.15,WNW,290,5.8,11.2,41,0.00,,BKN,0.00,VWS V13.01,2013-02-24 22:43:00,
2013-02-24 17:48:00,36.0,14.6,29.15,WNW,302,9.6,15.4,41,0.00,,BKN,0.00,VWS V13.01,2013-02-24 22:48:00,
2013-02-24 17:53:00,35.8,14.4,29.15,WNW,302,6.9,9.2,41,0.00,,BKN,0.00,VWS V13.01,2013-02-24 22:53:00,
2013-02-24 17:58:00,35.6,14.2,29.15,NNW,344,9.2,10.1,41,0.00,,BKN,0.00,VWS V13.01,2013-02-24 22:58:00,
2013-02-24 18:03:00,35.6,14.2,29.15,WNW,290,8.7,9.6,41,0.00,,BKN,0.00,VWS V13.01,2013-02-24 23:03:00,
2013-02-24 18:08:00,35.4,14.1,29.15,North,351,6.9,6.9,41,0.00,,BKN,0.00,VWS V13.01,2013-02-24 23:08:00,
2013-02-24 18:13:00,35.2,13.9,29.15,North,351,8.3,8.7,41,0.00,,BKN,0.00,VWS V13.01,2013-02-24 23:13:00,
2013-02-24 18:18:00,35.2,13.9,29.18,NNW,347,9.6,9.6,41,0.00,,BKN,0.00,VWS V13.01,2013-02-24 23:18:00,
2013-02-24 18:23:00,35.2,13.9,29.18,NW,321,6.9,6.9,41,0.00,,BKN,0.00,VWS V13.01,2013-02-24 23:23:00,
2013-02-24 18:28:00,35.1,13.8,29.18,North,356,5.8,5.8,41,0.00,,BKN,0.00,VWS V13.01,2013-02-24 23:28:00,
2013-02-24 18:33:00,35.1,14.3,29.21,NNE,17,6.9,6.9,42,0.00,,BKN,0.00,VWS V13.01,2013-02-24 23:33:00,
2013-02-24 18:38:00,35.1,14.3,29.21,NW,310,4.0,6.9,42,0.00,,BKN,0.00,VWS V13.01,2013-02-24 23:38:00,
2013-02-24 18:43:00,35.2,14.5,29.21,NW,311,4.0,4.0,42,0.00,,BKN,0.00,VWS V13.01,2013-02-24 23:43:00,
2013-02-24 18:48:00,35.2,14.5,29.21,NW,311,4.0,4.0,42,0.00,,BKN,0.00,VWS V13.01,2013-02-24 23:48:00,
2013-02-24 18:53:00,35.1,13.8,29.21,NW,311,4.0,4.0,41,0.00,,BKN,0.00,VWS V13.01,2013-02-24 23:53:00,
2013-02-24 18:58:00,35.1,13.8,29.21,NW,311,4.0,4.0,41,0.00,,BKN,0.00,VWS V13.01,2013-02-24 23:58:00,
2013-02-24 19:03:00,35.1,13.8,29.21,NW,311,4.0,4.0,41,0.00,,BKN,0.00,VWS V13.01,2013-02-25 00:03:00,
2013-02-24 19:08:00,34.9,13.6,29.21,NW,311,4.0,4.0,41,0.00,,BKN,0.00,VWS V13.01,2013-02-25 00:08:00,
2013-02-24 19:13:00,34.9,13.6,29.21,NW,311,4.0,4.0,41,0.00,,BKN,0.00,VWS V13.01,2013-02-25 00:13:00,
2013-02-24 19:18:00,34.9,13.6,29.21,NW,311,4.0,4.0,41,0.00,,BKN,0.00,VWS V13.01,2013-02-25 00:18:00,
2013-02-24 19:23:00,34.7,14.0,29.21,NW,311,4.0,4.0,42,0.00,,BKN,0.00,VWS V13.01,2013-02-25 00:23:00,
2013-02-24 19:28:00,34.5,14.3,29.21,NW,311,4.0,4.0,43,0.00,,BKN,0.00,VWS V13.01,2013-02-25 00:28:00,
2013-02-24 19:33:00,34.3,14.2,29.21,NW,311,4.0,4.0,43,0.00,,BKN,0.00,VWS V13.01,2013-02-25 00:33:00,
2013-02-24 19:38:00,34.2,14.5,29.21,NW,311,4.0,4.0,44,0.00,,BKN,0.00,VWS V13.01,2013-02-25 00:38:00,
2013-02-24 19:43:00,34.0,14.4,29.21,NW,311,4.0,4.0,44,0.00,,BKN,0.00,VWS V13.01,2013-02-25 00:43:00,
2013-02-24 19:48:00,34.0,13.9,29.23,NW,311,4.0,4.0,43,0.00,,BKN,0.00,VWS V13.01,2013-02-25 00:48:00,
2013-02-24 19:53:00,33.8,13.7,29.23,NW,311,4.0,4.0,43,0.00,,BKN,0.00,VWS V13.01,2013-02-25 00:53:00,
2013-02-24 19:58:00,33.8,13.7,29.23,NW,311,4.0,4.0,43,0.00,,BKN,0.00,VWS V13.01,2013-02-25 00:58:00,
2013-02-24 20:03:00,33.8,13.7,29.23,NW,311,4.0,4.0,43,0.00,,BKN,0.00,VWS V13.01,2013-02-25 01:03:00,
2013-02-24 20:08:00,33.8,13.7,29.23,NW,311,4.0,4.0,43,0.00,,BKN,0.00,VWS V13.01,2013-02-25 01:08:00,
2013-02-24 20:13:00,33.6,13.5,29.23,NW,311,4.0,4.0,43,0.00,,BKN,0.00,VWS V13.01,2013-02-25 01:13:00,
2013-02-24 20:18:00,33.6,13.5,29.23,NW,311,4.0,4.0,43,0.00,,BKN,0.00,VWS V13.01,2013-02-25 01:18:00,
2013-02-24 20:23:00,33.6,13.5,29.23,NW,311,4.0,4.0,43,0.00,,BKN,0.00,VWS V13.01,2013-02-25 01:23:00,
2013-02-24 20:28:00,33.6,13.5,29.23,NW,311,4.0,4.0,43,0.00,,BKN,0.00,VWS V13.01,2013-02-25 01:28:00,
2013-02-24 20:33:00,33.6,13.5,29.23,NW,311,4.0,4.0,43,0.00,,BKN,0.00,VWS V13.01,2013-02-25 01:33:00,
2013-02-24 20:38:00,33.4,12.8,29.23,NW,311,4.0,4.0,42,0.00,,BKN,0.00,VWS V13.01,2013-02-25 01:38:00,
2013-02-24 20:43:00,33.3,12.7,29.23,NW,311,4.0,4.0,42,0.00,,BKN,0.00,VWS V13.01,2013-02-25 01:43:00,
2013-02-24 20:48:00,33.3,12.7,29.23,NW,311,4.0,4.0,42,0.00,,BKN,0.00,VWS V13.01,2013-02-25 01:48:00,
2013-02-24 20:53:00,33.1,12.5,29.23,NW,311,4.0,4.0,42,0.00,,BKN,0.00,VWS V13.01,2013-02-25 01:53:00,
2013-02-24 20:58:00,33.1,12.0,29.23,NW,311,4.0,4.0,41,0.00,,BKN,0.00,VWS V13.01,2013-02-25 01:58:00,
2013-02-24 21:03:00,33.1,12.0,29.23,NW,311,4.0,4.0,41,0.00,,BKN,0.00,VWS V13.01,2013-02-25 02:03:00,
2013-02-24 21:08:00,33.1,12.0,29.26,NW,311,4.0,4.0,41,0.00,,BKN,0.00,VWS V13.01,2013-02-25 02:08:00,
2013-02-24 21:13:00,33.1,12.0,29.26,NW,311,4.0,4.0,41,0.00,,BKN,0.00,VWS V13.01,2013-02-25 02:13:00,
2013-02-24 21:18:00,33.1,12.0,29.26,NW,311,4.0,4.0,41,0.00,,BKN,0.00,VWS V13.01,2013-02-25 02:18:00,
2013-02-24 21:23:00,32.9,11.2,29.26,NW,311,4.0,4.0,40,0.00,,BKN,0.00,VWS V13.01,2013-02-25 02:23:00,
2013-02-24 21:28:00,32.7,11.6,29.26,NW,311,4.0,4.0,41,0.00,,BKN,0.00,VWS V13.01,2013-02-25 02:28:00,
2013-02-24 21:33:00,32.7,11.1,29.26,NW,311,4.0,4.0,40,0.00,,BKN,0.00,VWS V13.01,2013-02-25 02:33:00,
2013-02-24 21:38:00,32.7,11.1,29.26,NW,311,4.0,4.0,40,0.00,,BKN,0.00,VWS V13.01,2013-02-25 02:38:00,
2013-02-24 21:44:00,32.7,11.1,29.26,NW,311,4.0,4.0,40,0.00,,BKN,0.00,VWS V13.01,2013-02-25 02:44:00,
2013-02-24 21:49:00,32.4,10.8,29.26,NW,311,4.0,4.0,40,0.00,,BKN,0.00,VWS V13.01,2013-02-25 02:49:00,
2013-02-24 21:54:00,32.4,10.8,29.26,NW,311,4.0,4.0,40,0.00,,BKN,0.00,VWS V13.01,2013-02-25 02:54:00,
2013-02-24 21:59:00,32.2,10.6,29.26,NW,311,4.0,4.0,40,0.00,,BKN,0.00,VWS V13.01,2013-02-25 02:59:00,
2013-02-24 22:04:00,32.2,10.6,29.26,NW,311,4.0,4.0,40,0.00,,BKN,0.00,VWS V13.01,2013-02-25 03:04:00,
2013-02-24 22:09:00,32.2,10.6,29.26,NW,311,4.0,4.0,40,0.00,,BKN,0.00,VWS V13.01,2013-02-25 03:09:00,
2013-02-24 22:14:00,32.2,10.6,29.26,NW,325,4.9,4.9,40,0.00,,BKN,0.00,VWS V13.01,2013-02-25 03:14:00,
2013-02-24 22:18:00,32.0,10.4,29.26,West,273,4.9,7.4,40,0.00,,BKN,0.00,VWS V13.01,2013-02-25 03:18:00,
2013-02-24 22:23:00,32.0,10.4,29.26,NNW,341,3.6,4.5,40,0.00,,BKN,0.00,VWS V13.01,2013-02-25 03:23:00,
2013-02-24 22:28:00,32.0,10.4,29.26,West,265,7.4,10.1,40,0.00,,BKN,0.00,VWS V13.01,2013-02-25 03:28:00,
2013-02-24 22:33:00,32.2,10.6,29.26,West,279,5.8,8.7,40,0.00,,BKN,0.00,VWS V13.01,2013-02-25 03:33:00,
2013-02-24 22:38:00,32.2,10.6,29.26,WNW,282,6.9,8.7,40,0.00,,BKN,0.00,VWS V13.01,2013-02-25 03:38:00,
2013-02-24 22:43:00,32.2,10.6,29.26,West,281,6.3,9.6,40,0.00,,BKN,0.00,VWS V13.01,2013-02-25 03:43:00,
2013-02-24 22:48:00,32.0,10.4,29.26,WNW,283,6.3,7.4,40,0.00,,BKN,0.00,VWS V13.01,2013-02-25 03:48:00,
2013-02-24 22:53:00,32.0,10.4,29.26,NW,305,4.9,6.7,40,0.00,,BKN,0.00,VWS V13.01,2013-02-25 03:53:00,
2013-02-24 22:58:00,31.8,10.3,29.26,WNW,302,0.0,4.5,40,0.00,,BKN,0.00,VWS V13.01,2013-02-25 03:58:00,
2013-02-24 23:03:00,31.8,10.8,29.26,NW,309,4.9,6.9,41,0.00,,BKN,0.00,VWS V13.01,2013-02-25 04:03:00,
2013-02-24 23:08:00,31.8,10.8,29.26,NW,317,4.0,9.2,41,0.00,,BKN,0.00,VWS V13.01,2013-02-25 04:08:00,
2013-02-24 23:13:00,31.8,10.8,29.26,WNW,303,5.8,5.8,41,0.00,,BKN,0.00,VWS V13.01,2013-02-25 04:13:00,
2013-02-24 23:19:00,31.6,10.6,29.26,WNW,299,5.8,5.8,41,0.00,,BKN,0.00,VWS V13.01,2013-02-25 04:19:00,
2013-02-24 23:24:00,31.6,10.6,29.26,WNW,290,4.9,5.8,41,0.00,,BKN,0.00,VWS V13.01,2013-02-25 04:24:00,
2013-02-24 23:28:00,31.5,10.5,29.26,NW,319,3.6,5.8,41,0.00,,BKN,0.00,VWS V13.01,2013-02-25 04:28:00,
2013-02-24 23:33:00,31.3,10.3,29.26,SW,230,3.6,7.8,41,0.00,,BKN,0.00,VWS V13.01,2013-02-25 04:33:00,
2013-02-24 23:38:00,31.3,10.3,29.26,NW,305,2.7,4.5,41,0.00,,BKN,0.00,VWS V13.01,2013-02-25 04:38:00,
2013-02-24 23:43:00,31.3,10.3,29.26,WNW,303,4.5,4.5,41,0.00,,BKN,0.00,VWS V13.01,2013-02-25 04:43:00,
2013-02-24 23:49:00,31.1,10.2,29.26,NW,309,5.4,5.4,41,0.00,,BKN,0.00,VWS V13.01,2013-02-25 04:49:00,
2013-02-24 23:54:00,31.1,10.2,29.26,NW,305,3.1,4.0,41,0.00,,BKN,0.00,VWS V13.01,2013-02-25 04:54:00,
2013-02-24 23:59:00,30.9,10.0,29.26,West,279,4.0,5.4,41,0.00,,BKN,0.00,VWS V13.01,2013-02-25 04:59:00,